Time,TemperatureF,DewpointF,PressureIn,WindDirection,WindDirectionDegrees,WindSpeedMPH,WindSpeedGustMPH,Humidity,HourlyPrecipIn,Conditions,Clouds,dailyrainin,SolarRadiationWatts/m^2,SoftwareType,DateUTC
2013-02-25 00:00:00,72.9,67.1,29.87,SSW,192,0.0,0.0,82,0.00,,BKN075,0.00,0.00,VWS V14.00,2013-02-25 05:00:00,
2013-02-25 00:02:00,72.8,67.0,29.86,SSW,192,0.0,0.0,82,0.00,,BKN075,0.00,0.00,VWS V14.00,2013-02-25 05:02:00,
2013-02-25 00:07:00,72.7,67.2,29.86,SSW,192,0.0,0.0,83,0.00,,BKN075,0.00,0.00,VWS V14.00,2013-02-25 05:07:00,
2013-02-25 00:12:00,72.5,67.1,29.86,SSW,192,0.0,0.0,83,0.00,,BKN075,0.00,0.00,VWS V14.00,2013-02-25 05:12:00,
2013-02-25 00:17:00,72.4,67.3,29.86,SSW,192,0.0,0.0,84,0.00,,BKN075,0.00,0.00,VWS V14.00,2013-02-25 05:17:00,
2013-02-25 00:22:00,72.3,67.2,29.86,SSW,192,0.0,0.0,84,0.00,,BKN075,0.00,0.00,VWS V14.00,2013-02-25 05:22:00,
2013-02-25 00:27:00,72.3,67.5,29.87,SSW,192,0.0,0.0,85,0.00,,BKN075,0.00,0.00,VWS V14.00,2013-02-25 05:27:00,
2013-02-25 00:32:00,72.3,67.5,29.88,SSW,192,0.0,0.0,85,0.00,,BKN075,0.00,0.00,VWS V14.00,2013-02-25 05:32:00,
2013-02-25 00:37:00,72.3,67.5,29.88,SSW,192,0.0,0.0,85,0.00,,BKN075,0.00,0.00,VWS V14.00,2013-02-25 05:37:00,
2013-02-25 00:42:00,72.2,67.4,29.87,SSW,192,0.0,0.0,85,0.00,,BKN075,0.00,0.00,VWS V14.00,2013-02-25 05:42:00,
2013-02-25 00:47:00,72.1,67.3,29.87,SSW,192,0.0,0.0,85,0.00,,BKN075,0.00,0.00,VWS V14.00,2013-02-25 05:47:00,
2013-02-25 00:52:00,72.0,67.2,29.86,SSW,192,0.0,0.0,85,0.00,,BKN075,0.00,0.00,VWS V14.00,2013-02-25 05:52:00,
2013-02-25 00:57:00,71.9,67.2,29.87,SSW,192,0.0,0.0,85,0.00,,BKN075,0.00,0.00,VWS V14.00,2013-02-25 05:57:00,
2013-02-25 01:02:00,71.9,67.2,29.87,SSW,192,0.0,0.0,85,0.00,,BKN075,0.00,0.00,VWS V14.00,2013-02-25 06:02:00,
2013-02-25 01:07:00,71.9,67.5,29.87,SSW,192,0.0,0.0,86,0.00,,BKN075,0.00,0.00,VWS V14.00,2013-02-25 06:07:00,
2013-02-25 01:12:00,72.0,67.6,29.86,SSW,192,0.0,0.0,86,0.00,,BKN075,0.00,0.00,VWS V14.00,2013-02-25 06:12:00,
2013-02-25 01:17:00,71.9,67.5,29.87,SSW,192,0.0,0.0,86,0.00,,BKN075,0.00,0.00,VWS V14.00,2013-02-25 06:17:00,
2013-02-25 01:22:00,71.7,67.3,29.87,SSW,192,0.0,0.0,86,0.00,,BKN075,0.00,0.00,VWS V14.00,2013-02-25 06:22:00,
2013-02-25 01:27:00,71.5,67.1,29.86,SSW,192,0.0,0.0,86,0.00,,BKN075,0.00,0.00,VWS V14.00,2013-02-25 06:27:00,
2013-02-25 01:32:00,71.3,66.9,29.86,SSW,192,0.0,0.0,86,0.00,,BKN075,0.00,0.00,VWS V14.00,2013-02-25 06:32:00,
2013-02-25 01:37:00,71.2,66.8,29.86,SSW,192,0.0,0.0,86,0.00,,BKN075,0.00,0.00,VWS V14.00,2013-02-25 06:37:00,
2013-02-25 01:42:00,71.0,66.6,29.85,SSW,192,0.0,0.0,86,0.00,,BKN075,0.00,0.00,VWS V14.00,2013-02-25 06:42:00,
2013-02-25 01:47:00,70.9,66.5,29.85,SSW,192,0.0,0.0,86,0.00,,BKN075,0.00,0.00,VWS V14.00,2013-02-25 06:47:00,
2013-02-25 01:52:00,70.8,66.7,29.85,SSW,192,0.0,0.0,87,0.00,,BKN075,0.00,0.00,VWS V14.00,2013-02-25 06:52:00,
2013-02-25 01:57:00,70.7,66.7,29.85,SSW,192,0.0,0.0,87,0.00,,BKN075,0.00,0.00,VWS V14.00,2013-02-25 06:57:00,
2013-02-25 02:02:00,70.6,66.6,29.85,SSW,192,0.0,0.0,87,0.00,,BKN075,0.00,0.00,VWS V14.00,2013-02-25 07:02:00,
2013-02-25 02:07:00,70.5,66.4,29.84,SSW,192,0.0,0.0,87,0.00,,BKN075,0.00,0.00,VWS V14.00,2013-02-25 07:07:00,
2013-02-25 02:12:00,70.5,66.8,29.84,SSW,192,0.0,0.0,88,0.00,,BKN075,0.00,0.00,VWS V14.00,2013-02-25 07:12:00,
2013-02-25 02:17:00,70.5,66.8,29.83,SSW,192,0.0,0.0,88,0.00,,BKN075,0.00,0.00,VWS V14.00,2013-02-25 07:17:00,
2013-02-25 02:22:00,70.4,66.7,29.83,SSW,192,0.0,0.0,88,0.00,,BKN075,0.00,0.00,VWS V14.00,2013-02-25 07:22:00,
2013-02-25 02:27:00,70.4,66.7,29.83,SSW,192,0.0,0.0,88,0.00,,BKN075,0.00,0.00,VWS V14.00,2013-02-25 07:27:00,
2013-02-25 02:32:00,70.3,66.9,29.83,SSW,192,0.0,0.0,89,0.00,,BKN075,0.00,0.00,VWS V14.00,2013-02-25 07:32:00,
2013-02-25 02:37:00,70.3,66.9,29.83,SSW,192,0.0,0.0,89,0.00,,BKN075,0.00,0.00,VWS V14.00,2013-02-25 07:37:00,
2013-02-25 02:42:00,70.4,67.0,29.83,SSW,192,0.0,0.0,89,0.00,,BKN075,0.00,0.00,VWS V14.00,2013-02-25 07:42:00,
2013-02-25 02:47:00,70.3,66.9,29.83,SSW,192,0.0,0.0,89,0.00,,BKN075,0.00,0.00,VWS V14.00,2013-02-25 07:47:00,
2013-02-25 02:52:00,70.2,66.8,29.83,SSW,192,0.0,0.0,89,0.00,,BKN075,0.00,0.00,VWS V14.00,2013-02-25 07:52:00,
2013-02-25 02:57:00,70.1,66.7,29.83,SSW,192,0.0,0.0,89,0.00,,BKN075,0.00,0.00,VWS V14.00,2013-02-25 07:57:00,
2013-02-25 03:02:00,69.9,66.5,29.83,SSW,192,0.0,0.0,89,0.00,,BKN075,0.00,0.00,VWS V14.00,2013-02-25 08:02:00,
2013-02-25 03:07:00,69.9,66.5,29.83,SSW,192,0.0,0.0,89,0.00,,BKN075,0.00,0.00,VWS V14.00,2013-02-25 08:07:00,
2013-02-25 03:12:00,69.8,66.4,29.83,SSW,192,0.0,0.0,89,0.00,,BKN075,0.00,0.00,VWS V14.00,2013-02-25 08:12:00,
2013-02-25 03:17:00,69.7,66.3,29.83,SSW,192,0.0,0.0,89,0.00,,BKN075,0.00,0.00,VWS V14.00,2013-02-25 08:17:00,
2013-02-25 03:22:00,69.6,66.5,29.83,SSW,192,0.0,0.0,90,0.00,,BKN075,0.00,0.00,VWS V14.00,2013-02-25 08:22:00,
2013-02-25 03:27:00,69.7,66.6,29.83,SSW,192,0.0,0.0,90,0.00,,BKN075,0.00,0.00,VWS V14.00,2013-02-25 08:27:00,
2013-02-25 03:32:00,69.8,66.7,29.83,SSW,192,0.0,0.0,90,0.00,,BKN075,0.00,0.00,VWS V14.00,2013-02-25 08:32:00,
2013-02-25 03:37:00,69.8,66.7,29.83,SSW,192,0.0,0.0,90,0.00,,BKN075,0.00,0.00,VWS V14.00,2013-02-25 08:37:00,
2013-02-25 03:42:00,69.7,66.6,29.84,SSW,192,0.0,0.0,90,0.00,,BKN075,0.00,0.00,VWS V14.00,2013-02-25 08:42:00,
2013-02-25 03:47:00,69.7,66.6,29.83,SSW,192,0.0,0.0,90,0.00,,BKN075,0.00,0.00,VWS V14.00,2013-02-25 08:47:00,
2013-02-25 03:52:00,69.6,66.5,29.83,SSW,192,0.0,0.0,90,0.00,,BKN075,0.00,0.00,VWS V14.00,2013-02-25 08:52:00,
2013-02-25 03:57:00,69.5,66.4,29.83,SSW,192,0.0,0.0,90,0.00,,BKN075,0.00,0.00,VWS V14.00,2013-02-25 08:57:00,
2013-02-25 04:02:00,69.5,66.4,29.83,SSW,192,0.0,0.0,90,0.00,,BKN075,0.00,0.00,VWS V14.00,2013-02-25 09:02:00,
2013-02-25 04:07:00,69.3,66.2,29.83,SSW,192,0.0,0.0,90,0.00,,BKN075,0.00,0.00,VWS V14.00,2013-02-25 09:07:00,
2013-02-25 04:12:00,69.3,66.2,29.83,SSW,192,0.0,0.0,90,0.00,,BKN075,0.00,0.00,VWS V14.00,2013-02-25 09:12:00,
2013-02-25 04:17:00,69.3,66.2,29.82,SSW,192,0.0,0.0,90,0.00,,BKN075,0.00,0.00,VWS V14.00,2013-02-25 09:17:00,
2013-02-25 04:22:00,69.4,66.3,29.82,SSW,192,0.0,0.0,90,0.00,,BKN075,0.00,0.00,VWS V14.00,2013-02-25 09:22:00,
2013-02-25 04:27:00,69.5,66.4,29.83,SSW,192,0.0,0.0,90,0.00,,BKN075,0.00,0.00,VWS V14.00,2013-02-25 09:27:00,
2013-02-25 04:32:00,69.6,66.5,29.83,SSW,192,0.0,0.0,90,0.00,,BKN075,0.00,0.00,VWS V14.00,2013-02-25 09:32:00,
2013-02-25 04:37:00,69.6,66.5,29.83,SSW,192,0.0,0.0,90,0.00,,BKN075,0.00,0.00,VWS V14.00,2013-02-25 09:37:00,
2013-02-25 04:42:00,69.6,66.5,29.83,SSW,192,0.0,0.0,90,0.00,,BKN075,0.00,0.00,VWS V14.00,2013-02-25 09:42:00,
2013-02-25 04:47:00,69.6,66.5,29.83,SSW,192,0.0,0.0,90,0.00,,BKN075,0.00,0.00,VWS V14.00,2013-02-25 09:47:00,
2013-02-25 04:52:00,69.5,66.4,29.83,SSW,192,0.0,0.0,90,0.00,,BKN075,0.00,0.00,VWS V14.00,2013-02-25 09:52:00,
2013-02-25 04:57:00,69.5,66.4,29.83,SSW,192,0.0,0.0,90,0.00,,BKN075,0.00,0.00,VWS V14.00,2013-02-25 09:57:00,
2013-02-25 05:02:00,69.4,66.3,29.83,SSW,192,0.0,0.0,90,0.00,,BKN075,0.00,0.00,VWS V14.00,2013-02-25 10:02:00,
2013-02-25 05:07:00,69.3,66.2,29.82,SSW,192,0.0,0.0,90,0.00,,BKN075,0.00,0.00,VWS V14.00,2013-02-25 10:07:00,
2013-02-25 05:12:00,69.3,66.6,29.83,SSW,192,0.0,0.0,91,0.00,,BKN075,0.00,0.00,VWS V14.00,2013-02-25 10:12:00,
2013-02-25 05:17:00,69.3,66.6,29.83,SSW,192,0.0,0.0,91,0.00,,BKN075,0.00,0.00,VWS V14.00,2013-02-25 10:17:00,
2013-02-25 05:23:00,69.3,66.6,29.83,SSW,192,0.0,0.0,91,0.00,,BKN075,0.00,0.00,VWS V14.00,2013-02-25 10:23:00,
2013-02-25 05:28:00,69.3,66.6,29.83,SSW,192,0.0,0.0,91,0.00,,BKN075,0.00,0.00,VWS V14.00,2013-02-25 10:28:00,
2013-02-25 05:33:00,69.3,66.6,29.83,SSW,192,0.0,0.0,91,0.00,,BKN075,0.00,0.00,VWS V14.00,2013-02-25 10:33:00,
2013-02-25 05:38:00,69.4,66.7,29.83,SSW,192,0.0,0.0,91,0.00,,BKN075,0.00,0.00,VWS V14.00,2013-02-25 10:38:00,
2013-02-25 05:43:00,69.4,66.7,29.83,SSW,192,0.0,0.0,91,0.00,,BKN075,0.00,0.00,VWS V14.00,2013-02-25 10:43:00,
2013-02-25 05:48:00,69.2,66.5,29.83,SSW,192,0.0,0.0,91,0.00,,BKN075,0.00,0.00,VWS V14.00,2013-02-25 10:48:00,
2013-02-25 05:53:00,69.0,66.3,29.83,SSW,192,0.0,0.0,91,0.00,,BKN075,0.00,0.00,VWS V14.00,2013-02-25 10:53:00,
2013-02-25 05:58:00,68.8,66.1,29.83,SSW,192,0.0,0.0,91,0.00,,BKN075,0.00,0.00,VWS V14.00,2013-02-25 10:58:00,
2013-02-25 06:03:00,68.7,66.0,29.83,SSW,192,0.0,0.0,91,0.00,,BKN075,0.00,0.00,VWS V14.00,2013-02-25 11:03:00,
2013-02-25 06:08:00,68.7,66.0,29.83,SSW,192,0.0,0.0,91,0.00,,BKN075,0.00,0.00,VWS V14.00,2013-02-25 11:08:00,
2013-02-25 06:13:00,68.7,66.0,29.83,SSW,192,0.0,0.0,91,0.00,,BKN075,0.00,0.00,VWS V14.00,2013-02-25 11:13:00,
2013-02-25 06:18:00,68.7,66.0,29.83,SSW,192,0.0,0.0,91,0.00,,BKN075,0.00,0.00,VWS V14.00,2013-02-25 11:18:00,
2013-02-25 06:23:00,68.7,66.0,29.83,SSW,192,0.0,0.0,91,0.00,,BKN075,0.00,0.00,VWS V14.00,2013-02-25 11:23:00,
2013-02-25 06:28:00,68.7,66.0,29.83,SSW,192,0.0,0.0,91,0.00,,BKN075,0.00,0.00,VWS V14.00,2013-02-25 11:28:00,
2013-02-25 06:33:00,68.6,65.9,29.83,SSW,192,0.0,0.0,91,0.00,,BKN075,0.00,0.00,VWS V14.00,2013-02-25 11:33:00,
2013-02-25 06:38:00,68.6,65.9,29.83,SSW,192,0.0,0.0,91,0.00,,BKN075,0.00,0.00,VWS V14.00,2013-02-25 11:38:00,
2013-02-25 06:43:00,68.6,65.9,29.83,SSW,192,0.0,0.0,91,0.00,,BKN075,0.00,0.00,VWS V14.00,2013-02-25 11:43:00,
2013-02-25 06:48:00,68.9,66.2,29.83,SSW,192,0.0,0.0,91,0.00,,BKN075,0.00,0.00,VWS V14.00,2013-02-25 11:48:00,
2013-02-25 06:53:00,69.3,66.6,29.83,SSW,192,0.0,0.0,91,0.00,,BKN075,0.00,0.00,VWS V14.00,2013-02-25 11:53:00,
2013-02-25 06:58:00,69.4,66.7,29.83,SSW,192,0.0,0.0,91,0.00,,BKN075,0.00,9.00,VWS V14.00,2013-02-25 11:58:00,
2013-02-25 07:03:00,69.4,66.7,29.83,SSW,192,0.0,0.0,91,0.00,,BKN075,0.00,16.00,VWS V14.00,2013-02-25 12:03:00,
2013-02-25 07:08:00,69.3,66.6,29.83,SSW,192,0.0,0.0,91,0.00,,BKN075,0.00,25.00,VWS V14.00,2013-02-25 12:08:00,
2013-02-25 07:13:00,69.3,66.6,29.83,SSW,192,0.0,0.0,91,0.00,,BKN075,0.00,30.00,VWS V14.00,2013-02-25 12:13:00,
2013-02-25 07:18:00,69.2,66.5,29.84,SSW,192,0.0,0.0,91,0.00,,BKN075,0.00,32.00,VWS V14.00,2013-02-25 12:18:00,
2013-02-25 07:23:00,69.4,66.7,29.84,SSW,192,0.0,0.0,91,0.00,,BKN075,0.00,32.00,VWS V14.00,2013-02-25 12:23:00,
2013-02-25 07:28:00,69.7,67.0,29.84,SSW,192,0.0,0.0,91,0.00,,BKN075,0.00,21.00,VWS V14.00,2013-02-25 12:28:00,
2013-02-25 07:33:00,69.9,67.5,29.84,SSW,192,0.0,0.0,92,0.00,,FEW070,0.00,40.00,VWS V14.00,2013-02-25 12:33:00,
2013-02-25 07:38:00,70.3,67.6,29.83,SSW,192,0.0,0.0,91,0.00,,FEW070,0.00,37.00,VWS V14.00,2013-02-25 12:38:00,
2013-02-25 07:43:00,70.8,68.4,29.84,SSW,192,0.0,0.0,92,0.00,,FEW070,0.00,37.00,VWS V14.00,2013-02-25 12:43:00,
2013-02-25 07:48:00,71.2,68.4,29.84,SSW,192,0.0,0.0,91,0.00,,FEW070,0.00,35.00,VWS V14.00,2013-02-25 12:48:00,
2013-02-25 07:53:00,71.7,68.9,29.85,SSW,192,0.0,0.0,91,0.00,,FEW070,0.00,35.00,VWS V14.00,2013-02-25 12:53:00,
2013-02-25 07:58:00,72.0,69.6,29.85,SSW,192,0.0,0.0,92,0.00,,FEW070,0.00,30.00,VWS V14.00,2013-02-25 12:58:00,
2013-02-25 08:03:00,72.3,69.8,29.85,SSW,192,0.0,0.0,92,0.00,,FEW070,0.00,30.00,VWS V14.00,2013-02-25 13:03:00,
2013-02-25 08:08:00,72.6,69.8,29.85,SSW,192,0.0,0.0,91,0.00,,FEW070,0.00,42.00,VWS V14.00,2013-02-25 13:08:00,
2013-02-25 08:13:00,72.9,70.4,29.85,SSW,192,0.0,0.0,92,0.00,,FEW070,0.00,90.00,VWS V14.00,2013-02-25 13:13:00,
2013-02-25 08:18:00,73.2,70.4,29.86,SSW,192,0.0,0.0,91,0.00,,FEW070,0.00,49.00,VWS V14.00,2013-02-25 13:18:00,
2013-02-25 08:23:00,73.7,71.2,29.86,SSW,192,0.0,0.0,92,0.00,,FEW070,0.00,51.00,VWS V14.00,2013-02-25 13:23:00,
2013-02-25 08:28:00,74.0,71.2,29.86,SSW,192,0.0,0.0,91,0.00,,FEW070,0.00,53.00,VWS V14.00,2013-02-25 13:28:00,
2013-02-25 08:34:00,74.5,71.7,29.86,SSW,192,0.0,0.0,91,0.00,,FEW070,0.00,127.00,VWS V14.00,2013-02-25 13:34:00,
2013-02-25 08:39:00,74.9,72.1,29.87,SSW,192,0.0,0.0,91,0.00,,FEW070,0.00,77.00,VWS V14.00,2013-02-25 13:39:00,
2013-02-25 08:44:00,75.2,72.4,29.86,SSW,192,0.0,0.0,91,0.00,,FEW070,0.00,60.00,VWS V14.00,2013-02-25 13:44:00,
2013-02-25 08:49:00,75.5,72.7,29.87,SSW,192,0.0,2.0,91,0.00,,FEW070,0.00,79.00,VWS V14.00,2013-02-25 13:49:00,
2013-02-25 08:54:00,75.7,72.9,29.87,SSW,192,0.0,2.0,91,0.00,,SCT060,0.00,84.00,VWS V14.00,2013-02-25 13:54:00,
2013-02-25 08:59:00,76.0,72.9,29.87,SSW,192,4.0,4.0,90,0.00,,SCT060,0.00,98.00,VWS V14.00,2013-02-25 13:59:00,
2013-02-25 09:04:00,76.5,73.3,29.86,South,190,1.0,6.0,90,0.00,,SCT060,0.00,163.00,VWS V14.00,2013-02-25 14:04:00,
2013-02-25 09:09:00,76.8,73.3,29.86,South,190,1.0,8.0,89,0.00,,SCT060,0.00,113.00,VWS V14.00,2013-02-25 14:09:00,
2013-02-25 09:14:00,77.1,73.3,29.86,SSW,192,0.0,1.0,88,0.00,,SCT060,0.00,90.00,VWS V14.00,2013-02-25 14:14:00,
2013-02-25 09:19:00,77.6,73.4,29.86,SSW,192,0.0,1.0,87,0.00,,SCT060,0.00,97.00,VWS V14.00,2013-02-25 14:19:00,
2013-02-25 09:24:00,77.9,73.0,29.86,South,186,8.0,9.0,85,0.00,,SCT060,0.00,93.00,VWS V14.00,2013-02-25 14:24:00,
2013-02-25 09:29:00,78.4,72.8,29.86,SSW,198,10.0,10.0,83,0.00,,SCT060,0.00,174.00,VWS V14.00,2013-02-25 14:29:00,
2013-02-25 09:34:00,78.8,72.5,29.86,South,188,12.0,12.0,81,0.00,,BKN050,0.00,167.00,VWS V14.00,2013-02-25 14:34:00,
2013-02-25 09:39:00,79.3,72.6,29.86,SSW,194,10.0,11.0,80,0.00,,BKN050,0.00,141.00,VWS V14.00,2013-02-25 14:39:00,
2013-02-25 09:44:00,79.4,72.3,29.87,SSW,196,7.0,7.0,79,0.00,,BKN050,0.00,88.00,VWS V14.00,2013-02-25 14:44:00,
2013-02-25 09:49:00,79.6,72.1,29.87,SSW,196,2.0,7.0,78,0.00,,BKN050,0.00,178.00,VWS V14.00,2013-02-25 14:49:00,
2013-02-25 09:54:00,79.9,72.1,29.86,SSW,209,4.0,12.0,77,0.00,,BKN050,0.00,192.00,VWS V14.00,2013-02-25 14:54:00,
2013-02-25 09:59:00,80.2,72.3,29.86,SW,228,3.0,11.0,77,0.00,,BKN050,0.00,172.00,VWS V14.00,2013-02-25 14:59:00,
2013-02-25 10:04:00,80.5,71.5,29.86,South,182,10.0,16.0,74,0.00,,BKN050,0.00,162.00,VWS V14.00,2013-02-25 15:04:00,
2013-02-25 10:09:00,80.7,71.7,29.86,South,190,4.0,7.0,74,0.00,,BKN050,0.00,142.00,VWS V14.00,2013-02-25 15:09:00,
2013-02-25 10:14:00,80.8,71.7,29.86,SSW,200,5.0,10.0,74,0.00,,BKN050,0.00,155.00,VWS V14.00,2013-02-25 15:14:00,
2013-02-25 10:19:00,81.0,71.1,29.86,SW,235,7.0,13.0,72,0.00,,BKN050,0.00,155.00,VWS V14.00,2013-02-25 15:19:00,
2013-02-25 10:24:00,81.0,71.5,29.86,SSW,198,9.0,16.0,73,0.00,,BKN050,0.00,163.00,VWS V14.00,2013-02-25 15:24:00,
2013-02-25 10:29:00,80.6,70.8,29.86,SSW,201,7.0,11.0,72,0.00,,BKN050,0.00,72.00,VWS V14.00,2013-02-25 15:29:00,
2013-02-25 10:34:00,80.7,70.8,29.86,SSW,209,6.0,12.0,72,0.00,,BKN035,0.00,167.00,VWS V14.00,2013-02-25 15:34:00,
2013-02-25 10:39:00,81.0,71.1,29.86,SW,230,5.0,7.0,72,0.00,,BKN035,0.00,163.00,VWS V14.00,2013-02-25 15:39:00,
2013-02-25 10:44:00,81.3,70.6,29.86,South,191,14.0,15.0,70,0.00,,BKN035,0.00,179.00,VWS V14.00,2013-02-25 15:44:00,
2013-02-25 10:49:00,81.8,71.5,29.86,SW,229,9.0,12.0,71,0.00,,BKN035,0.00,132.00,VWS V14.00,2013-02-25 15:49:00,
2013-02-25 10:55:00,81.7,71.0,29.86,WSW,238,7.0,10.0,70,0.00,,BKN035,0.00,104.00,VWS V14.00,2013-02-25 15:55:00,
2013-02-25 11:00:00,81.8,71.5,29.86,WSW,240,2.0,4.0,71,0.00,,BKN035,0.00,176.00,VWS V14.00,2013-02-25 16:00:00,
2013-02-25 11:05:00,82.5,71.3,29.86,SW,222,7.0,11.0,69,0.00,,BKN035,0.00,174.00,VWS V14.00,2013-02-25 16:05:00,
2013-02-25 11:10:00,82.8,71.6,29.85,SSW,194,2.0,9.0,69,0.00,,BKN035,0.00,83.00,VWS V14.00,2013-02-25 16:10:00,
2013-02-25 11:15:00,82.7,71.1,29.85,SSW,208,0.0,10.0,68,0.00,,BKN035,0.00,90.00,VWS V14.00,2013-02-25 16:15:00,
2013-02-25 11:20:00,83.0,71.4,29.85,SSW,200,6.0,6.0,68,0.00,,BKN035,0.00,181.00,VWS V14.00,2013-02-25 16:20:00,
2013-02-25 11:25:00,82.9,70.8,29.85,SSW,194,4.0,10.0,67,0.00,,BKN035,0.00,111.00,VWS V14.00,2013-02-25 16:25:00,
2013-02-25 11:30:00,82.7,70.6,29.84,SW,223,0.0,7.0,67,0.00,,BKN035,0.00,98.00,VWS V14.00,2013-02-25 16:30:00,
2013-02-25 11:35:00,82.7,71.5,29.84,SSW,196,2.0,13.0,69,0.00,,SCT016,0.00,104.00,VWS V14.00,2013-02-25 16:35:00,
2013-02-25 11:40:00,82.5,71.3,29.84,SSW,205,2.0,9.0,69,0.00,,SCT016,0.00,171.00,VWS V14.00,2013-02-25 16:40:00,
2013-02-25 11:45:00,82.3,71.5,29.84,SSE,159,7.0,9.0,70,0.00,,SCT016,0.00,167.00,VWS V14.00,2013-02-25 16:45:00,
2013-02-25 11:50:00,82.5,71.3,29.84,SSW,202,8.0,11.0,69,0.00,,SCT016,0.00,91.00,VWS V14.00,2013-02-25 16:50:00,
2013-02-25 11:55:00,82.3,71.5,29.84,South,186,1.0,7.0,70,0.00,,SCT016,0.00,132.00,VWS V14.00,2013-02-25 16:55:00,
2013-02-25 12:00:00,82.3,71.1,29.83,South,182,2.0,8.0,69,0.00,,SCT016,0.00,127.00,VWS V14.00,2013-02-25 17:00:00,
2013-02-25 12:05:00,83.0,70.9,29.83,South,177,5.0,11.0,67,0.00,,SCT016,0.00,93.00,VWS V14.00,2013-02-25 17:05:00,
2013-02-25 12:10:00,82.7,71.1,29.83,SSW,209,13.0,13.0,68,0.00,,SCT016,0.00,91.00,VWS V14.00,2013-02-25 17:10:00,
2013-02-25 12:15:00,82.6,71.4,29.83,SSW,196,10.0,10.0,69,0.00,,SCT016,0.00,183.00,VWS V14.00,2013-02-25 17:15:00,
2013-02-25 12:20:00,82.6,71.0,29.83,SSW,198,6.0,11.0,68,0.00,,SCT016,0.00,155.00,VWS V14.00,2013-02-25 17:20:00,
2013-02-25 12:25:00,82.6,71.0,29.82,South,175,3.0,16.0,68,0.00,,SCT016,0.00,167.00,VWS V14.00,2013-02-25 17:25:00,
2013-02-25 12:30:00,82.4,70.8,29.82,South,174,9.0,14.0,68,0.00,,SCT016,0.00,81.00,VWS V14.00,2013-02-25 17:30:00,
2013-02-25 12:35:00,82.2,70.6,29.82,South,169,6.0,13.0,68,0.00,,SCT016,0.00,81.00,VWS V14.00,2013-02-25 17:35:00,
2013-02-25 12:40:00,82.7,70.6,29.81,SSW,192,4.0,11.0,67,0.00,,SCT016,0.00,178.00,VWS V14.00,2013-02-25 17:40:00,
2013-02-25 12:45:00,83.0,71.4,29.80,South,181,7.0,16.0,68,0.00,,SCT016,0.00,176.00,VWS V14.00,2013-02-25 17:45:00,
2013-02-25 12:50:00,83.1,71.4,29.81,SSW,202,10.0,25.0,68,0.00,,SCT016,0.00,111.00,VWS V14.00,2013-02-25 17:50:00,
2013-02-25 12:55:00,83.0,71.4,29.80,SSE,165,10.0,10.0,68,0.00,,SCT016,0.00,84.00,VWS V14.00,2013-02-25 17:55:00,
2013-02-25 13:00:00,82.8,72.0,29.80,SSE,167,7.0,13.0,70,0.00,,SCT016,0.00,77.00,VWS V14.00,2013-02-25 18:00:00,
2013-02-25 13:05:00,82.4,72.1,29.80,South,186,1.0,16.0,71,0.00,,SCT016,0.00,60.00,VWS V14.00,2013-02-25 18:05:00,
2013-02-25 13:10:00,82.2,71.9,29.80,South,171,6.0,15.0,71,0.00,,SCT016,0.00,63.00,VWS V14.00,2013-02-25 18:10:00,
2013-02-25 13:15:00,81.8,71.9,29.80,SSE,165,4.0,13.0,72,0.00,,SCT016,0.00,63.00,VWS V14.00,2013-02-25 18:15:00,
2013-02-25 13:20:00,81.4,71.5,29.80,South,190,10.0,14.0,72,0.00,,SCT016,0.00,56.00,VWS V14.00,2013-02-25 18:20:00,
2013-02-25 13:25:00,81.0,71.5,29.80,SSE,158,10.0,12.0,73,0.00,,SCT016,0.00,54.00,VWS V14.00,2013-02-25 18:25:00,
2013-02-25 13:30:00,80.9,72.2,29.79,South,171,6.0,9.0,75,0.00,,SCT016,0.00,39.00,VWS V14.00,2013-02-25 18:30:00,
2013-02-25 13:35:00,80.3,72.1,29.79,South,180,2.0,14.0,76,0.00,,SCT020,0.00,70.00,VWS V14.00,2013-02-25 18:35:00,
2013-02-25 13:40:00,80.0,71.8,29.79,South,182,16.0,16.0,76,0.00,,SCT020,0.00,53.00,VWS V14.00,2013-02-25 18:40:00,
2013-02-25 13:45:00,79.9,71.7,29.79,South,189,8.0,9.0,76,0.00,,SCT020,0.00,47.00,VWS V14.00,2013-02-25 18:45:00,
2013-02-25 13:50:00,79.8,71.6,29.79,South,173,3.0,12.0,76,0.00,,SCT020,0.00,37.00,VWS V14.00,2013-02-25 18:50:00,
2013-02-25 13:55:00,79.8,71.2,29.79,SSW,202,5.0,13.0,75,0.00,,SCT020,0.00,32.00,VWS V14.00,2013-02-25 18:55:00,
2013-02-25 14:00:00,80.0,71.4,29.79,South,171,16.0,16.0,75,0.00,,SCT020,0.00,26.00,VWS V14.00,2013-02-25 19:00:00,
2013-02-25 14:05:00,79.9,71.3,29.79,SSW,201,14.0,19.0,75,0.00,,SCT020,0.00,35.00,VWS V14.00,2013-02-25 19:05:00,
2013-02-25 14:10:00,79.7,71.5,29.79,South,190,5.0,13.0,76,0.00,,SCT020,0.00,42.00,VWS V14.00,2013-02-25 19:10:00,
2013-02-25 14:15:00,79.7,71.5,29.79,SW,216,7.0,10.0,76,0.00,,SCT020,0.00,62.00,VWS V14.00,2013-02-25 19:15:00,
2013-02-25 14:20:00,79.6,71.8,29.79,South,190,9.0,11.0,77,0.00,,SCT020,0.00,63.00,VWS V14.00,2013-02-25 19:20:00,
2013-02-25 14:25:00,79.4,71.6,29.79,SSW,209,11.0,11.0,77,0.00,,SCT020,0.00,40.00,VWS V14.00,2013-02-25 19:25:00,
2013-02-25 14:30:00,79.0,71.6,29.79,South,186,4.0,10.0,78,0.00,,SCT020,0.00,32.00,VWS V14.00,2013-02-25 19:30:00,
2013-02-25 14:35:00,78.7,72.0,29.79,South,182,8.0,11.0,80,0.00,,SCT040,0.00,30.00,VWS V14.00,2013-02-25 19:35:00,
2013-02-25 14:40:00,78.5,72.2,29.78,South,182,0.0,6.0,81,0.00,,SCT040,0.00,28.00,VWS V14.00,2013-02-25 19:40:00,
2013-02-25 14:45:00,78.4,72.8,29.79,South,190,8.0,8.0,83,0.00,,SCT040,0.00,28.00,VWS V14.00,2013-02-25 19:45:00,
2013-02-25 14:51:00,78.1,72.5,29.79,South,169,4.0,5.0,83,0.00,,SCT040,0.00,28.00,VWS V14.00,2013-02-25 19:51:00,
2013-02-25 14:55:00,78.0,72.4,29.78,SSW,192,3.0,7.0,83,0.00,,SCT040,0.00,32.00,VWS V14.00,2013-02-25 19:55:00,
2013-02-25 15:01:00,78.0,72.1,29.79,SSW,200,9.0,10.0,82,0.00,,SCT040,0.00,26.00,VWS V14.00,2013-02-25 20:01:00,
2013-02-25 15:06:00,78.0,71.7,29.78,South,176,5.0,12.0,81,0.00,,SCT040,0.00,19.00,VWS V14.00,2013-02-25 20:06:00,
2013-02-25 15:11:00,78.2,71.9,29.79,South,180,11.0,11.0,81,0.00,,SCT040,0.00,16.00,VWS V14.00,2013-02-25 20:11:00,
2013-02-25 15:16:00,78.3,72.0,29.78,South,173,5.0,7.0,81,0.00,,SCT040,0.00,23.00,VWS V14.00,2013-02-25 20:16:00,
2013-02-25 15:21:00,78.4,72.1,29.78,SSW,194,6.0,9.0,81,0.00,,SCT040,0.00,35.00,VWS V14.00,2013-02-25 20:21:00,
2013-02-25 15:26:00,78.5,72.2,29.78,South,178,0.0,11.0,81,0.00,,SCT040,0.00,37.00,VWS V14.00,2013-02-25 20:26:00,
2013-02-25 15:31:00,78.5,72.6,29.78,SSW,195,5.0,14.0,82,0.00,,SCT040,0.00,28.00,VWS V14.00,2013-02-25 20:31:00,
2013-02-25 15:36:00,78.2,72.6,29.78,SSW,194,1.0,1.0,83,0.00,,BKN040,0.01,14.00,VWS V14.00,2013-02-25 20:36:00,
2013-02-25 15:41:00,77.6,72.4,29.77,SSW,194,7.0,12.0,84,0.22,,BKN040,0.03,18.00,VWS V14.00,2013-02-25 20:41:00,
2013-02-25 15:46:00,77.1,71.9,29.77,South,187,0.0,6.0,84,0.10,,BKN040,0.03,32.00,VWS V14.00,2013-02-25 20:46:00,
2013-02-25 15:51:00,77.0,72.2,29.77,South,188,4.0,4.0,85,0.05,,BKN040,0.03,28.00,VWS V14.00,2013-02-25 20:51:00,
2013-02-25 15:56:00,77.0,72.5,29.77,South,191,3.0,3.0,86,0.04,,BKN040,0.03,54.00,VWS V14.00,2013-02-25 20:56:00,
2013-02-25 16:01:00,77.3,72.8,29.76,South,189,0.0,2.0,86,0.00,,BKN040,0.04,100.00,VWS V14.00,2013-02-25 21:01:00,
2013-02-25 16:06:00,77.7,72.8,29.77,South,186,11.0,11.0,85,0.00,,BKN040,0.04,44.00,VWS V14.00,2013-02-25 21:06:00,
2013-02-25 16:11:00,78.2,72.6,29.76,SSW,194,13.0,16.0,83,0.00,,BKN040,0.04,56.00,VWS V14.00,2013-02-25 21:11:00,
2013-02-25 16:16:00,78.6,72.7,29.77,South,187,3.0,8.0,82,0.00,,BKN040,0.04,39.00,VWS V14.00,2013-02-25 21:16:00,
2013-02-25 16:21:00,78.9,72.6,29.76,South,186,0.0,1.0,81,0.00,,BKN040,0.04,37.00,VWS V14.00,2013-02-25 21:21:00,
2013-02-25 16:26:00,78.9,71.8,29.76,South,183,4.0,12.0,79,0.00,,BKN040,0.04,49.00,VWS V14.00,2013-02-25 21:26:00,
2013-02-25 16:31:00,79.3,72.2,29.76,SSW,194,3.0,8.0,79,0.00,,BKN040,0.04,56.00,VWS V14.00,2013-02-25 21:31:00,
2013-02-25 16:36:00,79.7,71.9,29.76,South,188,3.0,5.0,77,0.00,,BKN040,0.04,90.00,VWS V14.00,2013-02-25 21:36:00,
2013-02-25 16:41:00,80.1,71.9,29.76,South,186,0.0,13.0,76,0.00,,BKN040,0.04,86.00,VWS V14.00,2013-02-25 21:41:00,
2013-02-25 16:46:00,80.1,71.5,29.77,SSW,196,2.0,13.0,75,0.00,,BKN040,0.04,81.00,VWS V14.00,2013-02-25 21:46:00,
2013-02-25 16:51:00,80.1,71.1,29.77,South,175,12.0,14.0,74,0.00,,BKN040,0.04,79.00,VWS V14.00,2013-02-25 21:51:00,
2013-02-25 16:56:00,80.1,71.1,29.77,SSW,202,5.0,14.0,74,0.00,,BKN040,0.04,33.00,VWS V14.00,2013-02-25 21:56:00,
2013-02-25 17:01:00,79.9,70.9,29.77,South,189,5.0,16.0,74,0.00,,BKN040,0.04,42.00,VWS V14.00,2013-02-25 22:01:00,
2013-02-25 17:06:00,79.8,71.2,29.78,South,181,4.0,12.0,75,0.00,,BKN040,0.04,37.00,VWS V14.00,2013-02-25 22:06:00,
2013-02-25 17:11:00,79.5,70.9,29.78,SSW,202,9.0,10.0,75,0.00,,BKN040,0.04,72.00,VWS V14.00,2013-02-25 22:11:00,
2013-02-25 17:16:00,79.5,71.3,29.78,South,186,5.0,9.0,76,0.00,,BKN040,0.04,74.00,VWS V14.00,2013-02-25 22:16:00,
2013-02-25 17:21:00,79.5,70.9,29.78,SSW,194,11.0,11.0,75,0.00,,BKN040,0.04,65.00,VWS V14.00,2013-02-25 22:21:00,
2013-02-25 17:26:00,79.5,70.9,29.77,South,191,6.0,7.0,75,0.00,,BKN040,0.04,56.00,VWS V14.00,2013-02-25 22:26:00,
2013-02-25 17:31:00,79.4,70.8,29.77,South,182,9.0,9.0,75,0.00,,BKN040,0.04,47.00,VWS V14.00,2013-02-25 22:31:00,
2013-02-25 17:36:00,79.2,70.6,29.78,SSW,194,9.0,10.0,75,0.00,,SCT040,0.04,42.00,VWS V14.00,2013-02-25 22:36:00,
2013-02-25 17:41:00,79.1,70.5,29.78,South,190,2.0,11.0,75,0.00,,SCT040,0.04,35.00,VWS V14.00,2013-02-25 22:41:00,
2013-02-25 17:46:00,79.0,70.8,29.78,South,188,9.0,10.0,76,0.00,,SCT040,0.04,32.00,VWS V14.00,2013-02-25 22:46:00,
2013-02-25 17:51:00,78.9,70.7,29.78,South,178,5.0,12.0,76,0.00,,SCT040,0.04,26.00,VWS V14.00,2013-02-25 22:51:00,
2013-02-25 17:56:00,78.7,70.5,29.78,South,184,0.0,9.0,76,0.00,,SCT040,0.04,19.00,VWS V14.00,2013-02-25 22:56:00,
2013-02-25 18:01:00,78.6,70.8,29.78,South,186,3.0,5.0,77,0.00,,SCT040,0.04,14.00,VWS V14.00,2013-02-25 23:01:00,
2013-02-25 18:06:00,78.4,70.6,29.78,South,184,3.0,5.0,77,0.00,,SCT040,0.04,9.00,VWS V14.00,2013-02-25 23:06:00,
2013-02-25 18:11:00,78.2,70.8,29.78,South,185,5.0,7.0,78,0.00,,SCT040,0.04,0.00,VWS V14.00,2013-02-25 23:11:00,
2013-02-25 18:16:00,78.0,70.6,29.78,South,191,7.0,9.0,78,0.00,,SCT040,0.04,0.00,VWS V14.00,2013-02-25 23:16:00,
2013-02-25 18:21:00,77.7,70.7,29.78,South,184,6.0,7.0,79,0.00,,SCT040,0.04,0.00,VWS V14.00,2013-02-25 23:21:00,
2013-02-25 18:26:00,77.5,70.8,29.78,SSW,192,0.0,9.0,80,0.00,,SCT040,0.04,0.00,VWS V14.00,2013-02-25 23:26:00,
2013-02-25 18:31:00,77.3,70.7,29.78,South,184,4.0,7.0,80,0.00,,SCT040,0.04,0.00,VWS V14.00,2013-02-25 23:31:00,
2013-02-25 18:37:00,77.1,70.8,29.78,South,189,6.0,9.0,81,0.00,,FEW040,0.04,0.00,VWS V14.00,2013-02-25 23:37:00,
2013-02-25 18:42:00,76.9,70.6,29.78,South,188,0.0,7.0,81,0.00,,FEW040,0.04,0.00,VWS V14.00,2013-02-25 23:42:00,
2013-02-25 18:47:00,76.8,70.9,29.78,South,188,2.0,7.0,82,0.00,,FEW040,0.04,0.00,VWS V14.00,2013-02-25 23:47:00,
2013-02-25 18:52:00,76.7,70.8,29.78,South,191,3.0,5.0,82,0.00,,FEW040,0.04,0.00,VWS V14.00,2013-02-25 23:52:00,
2013-02-25 18:57:00,76.6,70.7,29.78,South,190,1.0,3.0,82,0.00,,FEW040,0.04,0.00,VWS V14.00,2013-02-25 23:57:00,
2013-02-25 19:02:00,76.5,71.0,29.78,South,191,1.0,7.0,83,0.00,,FEW040,0.04,0.00,VWS V14.00,2013-02-26 00:02:00,
2013-02-25 19:07:00,76.4,70.9,29.79,SSW,192,7.0,10.0,83,0.00,,FEW040,0.04,0.00,VWS V14.00,2013-02-26 00:07:00,
2013-02-25 19:12:00,76.3,70.8,29.79,SSW,192,0.0,2.0,83,0.00,,FEW040,0.04,0.00,VWS V14.00,2013-02-26 00:12:00,
2013-02-25 19:17:00,76.2,71.0,29.78,South,190,0.0,8.0,84,0.00,,FEW040,0.04,0.00,VWS V14.00,2013-02-26 00:17:00,
2013-02-25 19:22:00,76.2,71.0,29.79,South,188,0.0,7.0,84,0.00,,FEW040,0.04,0.00,VWS V14.00,2013-02-26 00:22:00,
2013-02-25 19:27:00,76.1,71.3,29.79,South,182,4.0,4.0,85,0.00,,FEW040,0.04,0.00,VWS V14.00,2013-02-26 00:27:00,
2013-02-25 19:32:00,76.0,71.2,29.79,South,185,4.0,4.0,85,0.00,,FEW040,0.04,0.00,VWS V14.00,2013-02-26 00:32:00,
2013-02-25 19:37:00,76.0,71.2,29.80,SSW,194,0.0,3.0,85,0.00,,FEW040,0.04,0.00,VWS V14.00,2013-02-26 00:37:00,
2013-02-25 19:42:00,75.8,71.0,29.80,SSW,194,0.0,4.0,85,0.00,,FEW040,0.04,0.00,VWS V14.00,2013-02-26 00:42:00,
2013-02-25 19:47:00,75.8,71.0,29.80,SSW,194,2.0,3.0,85,0.00,,FEW040,0.04,0.00,VWS V14.00,2013-02-26 00:47:00,
2013-02-25 19:52:00,75.7,70.9,29.80,SSW,194,3.0,3.0,85,0.00,,FEW040,0.04,0.00,VWS V14.00,2013-02-26 00:52:00,
2013-02-25 19:57:00,75.6,70.8,29.80,SSW,194,2.0,6.0,85,0.00,,FEW040,0.04,0.00,VWS V14.00,2013-02-26 00:57:00,
2013-02-25 20:02:00,75.5,71.0,29.80,SSW,194,0.0,2.0,86,0.00,,FEW040,0.04,0.00,VWS V14.00,2013-02-26 01:02:00,
2013-02-25 20:07:00,75.4,70.9,29.80,SSW,194,0.0,5.0,86,0.00,,FEW040,0.04,0.00,VWS V14.00,2013-02-26 01:07:00,
2013-02-25 20:12:00,75.3,70.8,29.81,SSW,194,0.0,3.0,86,0.00,,FEW040,0.04,0.00,VWS V14.00,2013-02-26 01:12:00,
2013-02-25 20:17:00,75.2,70.7,29.81,SSW,194,0.0,0.0,86,0.00,,FEW040,0.04,0.00,VWS V14.00,2013-02-26 01:17:00,
2013-02-25 20:22:00,75.2,70.7,29.81,SSW,194,0.0,0.0,86,0.00,,FEW040,0.04,0.00,VWS V14.00,2013-02-26 01:22:00,
2013-02-25 20:27:00,75.1,70.6,29.81,SSW,194,0.0,0.0,86,0.00,,FEW040,0.04,0.00,VWS V14.00,2013-02-26 01:27:00,
2013-02-25 20:32:00,75.1,71.0,29.81,SSW,194,0.0,1.0,87,0.00,,FEW040,0.04,0.00,VWS V14.00,2013-02-26 01:32:00,
2013-02-25 20:37:00,75.0,70.9,29.81,SSW,194,0.0,0.0,87,0.00,,FEW040,0.04,0.00,VWS V14.00,2013-02-26 01:37:00,
2013-02-25 20:42:00,74.9,70.8,29.80,SSW,194,0.0,0.0,87,0.00,,FEW040,0.04,0.00,VWS V14.00,2013-02-26 01:42:00,
2013-02-25 20:47:00,74.9,70.8,29.81,SSW,194,0.0,1.0,87,0.00,,FEW040,0.04,0.00,VWS V14.00,2013-02-26 01:47:00,
2013-02-25 20:52:00,74.9,71.1,29.81,SSW,194,0.0,0.0,88,0.00,,FEW040,0.04,0.00,VWS V14.00,2013-02-26 01:52:00,
2013-02-25 20:57:00,74.9,71.1,29.81,SSW,194,0.0,0.0,88,0.00,,FEW040,0.04,0.00,VWS V14.00,2013-02-26 01:57:00,
2013-02-25 21:02:00,74.9,71.1,29.81,SSW,194,4.0,4.0,88,0.00,,FEW040,0.04,0.00,VWS V14.00,2013-02-26 02:02:00,
2013-02-25 21:07:00,74.8,71.0,29.82,SSW,194,0.0,0.0,88,0.00,,FEW040,0.04,0.00,VWS V14.00,2013-02-26 02:07:00,
2013-02-25 21:12:00,74.8,71.0,29.82,SSW,194,0.0,1.0,88,0.00,,FEW040,0.04,0.00,VWS V14.00,2013-02-26 02:12:00,
2013-02-25 21:17:00,74.8,71.0,29.82,SSW,194,0.0,3.0,88,0.00,,FEW040,0.04,0.00,VWS V14.00,2013-02-26 02:17:00,
2013-02-25 21:22:00,74.8,71.0,29.82,SSW,194,1.0,3.0,88,0.00,,FEW040,0.04,0.00,VWS V14.00,2013-02-26 02:22:00,
2013-02-25 21:27:00,74.7,70.9,29.81,SSW,194,0.0,4.0,88,0.00,,FEW040,0.04,0.00,VWS V14.00,2013-02-26 02:27:00,
2013-02-25 21:32:00,74.7,70.9,29.82,SSW,192,0.0,6.0,88,0.00,,SCT040,0.04,0.00,VWS V14.00,2013-02-26 02:32:00,
2013-02-25 21:37:00,74.7,70.9,29.81,SSW,192,0.0,3.0,88,0.00,,SCT040,0.04,0.00,VWS V14.00,2013-02-26 02:37:00,
2013-02-25 21:42:00,74.8,71.0,29.81,SSW,192,0.0,6.0,88,0.00,,SCT040,0.04,0.00,VWS V14.00,2013-02-26 02:42:00,
2013-02-25 21:48:00,74.8,71.0,29.81,South,191,0.0,5.0,88,0.00,,SCT040,0.04,0.00,VWS V14.00,2013-02-26 02:48:00,
2013-02-25 21:53:00,74.8,71.0,29.81,SSW,192,4.0,7.0,88,0.00,,SCT040,0.04,0.00,VWS V14.00,2013-02-26 02:53:00,
2013-02-25 21:58:00,74.8,71.0,29.81,SSW,192,0.0,4.0,88,0.00,,SCT040,0.04,0.00,VWS V14.00,2013-02-26 02:58:00,
2013-02-25 22:03:00,74.7,70.9,29.81,SSW,192,0.0,3.0,88,0.00,,SCT040,0.04,0.00,VWS V14.00,2013-02-26 03:03:00,
2013-02-25 22:08:00,74.7,71.2,29.81,SSW,192,1.0,5.0,89,0.00,,SCT040,0.04,0.00,VWS V14.00,2013-02-26 03:08:00,
2013-02-25 22:13:00,74.7,71.2,29.81,SSW,192,0.0,2.0,89,0.00,,SCT040,0.04,0.00,VWS V14.00,2013-02-26 03:13:00,
2013-02-25 22:18:00,74.7,71.2,29.81,SSW,192,0.0,1.0,89,0.00,,SCT040,0.04,0.00,VWS V14.00,2013-02-26 03:18:00,
2013-02-25 22:23:00,74.7,71.2,29.81,SSW,192,0.0,7.0,89,0.00,,SCT040,0.04,0.00,VWS V14.00,2013-02-26 03:23:00,
2013-02-25 22:28:00,74.7,71.2,29.81,SSW,192,2.0,5.0,89,0.00,,SCT040,0.04,0.00,VWS V14.00,2013-02-26 03:28:00,
2013-02-25 22:33:00,74.7,71.2,29.81,SSW,192,0.0,3.0,89,0.00,,SCT040,0.04,0.00,VWS V14.00,2013-02-26 03:33:00,
2013-02-25 22:38:00,74.8,71.7,29.81,SSW,192,5.0,5.0,90,0.00,,SCT040,0.04,0.00,VWS V14.00,2013-02-26 03:38:00,
2013-02-25 22:43:00,74.8,71.7,29.81,South,189,3.0,9.0,90,0.00,,SCT040,0.04,0.00,VWS V14.00,2013-02-26 03:43:00,
2013-02-25 22:48:00,74.9,71.8,29.80,South,180,5.0,9.0,90,0.00,,SCT040,0.04,0.00,VWS V14.00,2013-02-26 03:48:00,
2013-02-25 22:53:00,74.9,71.8,29.80,South,188,5.0,5.0,90,0.00,,SCT040,0.04,0.00,VWS V14.00,2013-02-26 03:53:00,
2013-02-25 22:58:00,74.9,71.8,29.80,South,191,0.0,0.0,90,0.00,,SCT040,0.04,0.00,VWS V14.00,2013-02-26 03:58:00,
2013-02-25 23:03:00,74.9,71.8,29.81,South,191,3.0,5.0,90,0.00,,SCT040,0.04,0.00,VWS V14.00,2013-02-26 04:03:00,
2013-02-25 23:08:00,74.9,71.8,29.81,South,191,1.0,4.0,90,0.00,,SCT040,0.04,0.00,VWS V14.00,2013-02-26 04:08:00,
2013-02-25 23:13:00,74.9,71.8,29.81,South,191,0.0,0.0,90,0.00,,SCT040,0.04,0.00,VWS V14.00,2013-02-26 04:13:00,
2013-02-25 23:18:00,74.8,71.7,29.81,South,191,0.0,1.0,90,0.00,,SCT040,0.04,0.00,VWS V14.00,2013-02-26 04:18:00,
2013-02-25 23:23:00,74.8,71.7,29.81,South,191,1.0,4.0,90,0.00,,SCT040,0.04,0.00,VWS V14.00,2013-02-26 04:23:00,
2013-02-25 23:28:00,74.9,71.8,29.81,South,191,0.0,0.0,90,0.00,,SCT040,0.04,0.00,VWS V14.00,2013-02-26 04:28:00,
2013-02-25 23:33:00,74.9,71.8,29.81,South,191,0.0,6.0,90,0.00,,SCT040,0.04,0.00,VWS V14.00,2013-02-26 04:33:00,
2013-02-25 23:38:00,74.9,71.8,29.81,South,190,5.0,6.0,90,0.00,,SCT040,0.04,0.00,VWS V14.00,2013-02-26 04:38:00,
2013-02-25 23:43:00,74.9,71.8,29.81,South,190,0.0,0.0,90,0.00,,SCT040,0.04,0.00,VWS V14.00,2013-02-26 04:43:00,
2013-02-25 23:48:00,75.0,71.9,29.81,South,190,3.0,6.0,90,0.00,,SCT040,0.04,0.00,VWS V14.00,2013-02-26 04:48:00,
2013-02-25 23:53:00,75.0,71.9,29.81,South,191,0.0,7.0,90,0.00,,SCT040,0.04,0.00,VWS V14.00,2013-02-26 04:53:00,
2013-02-25 23:58:00,74.9,71.8,29.80,South,190,2.0,5.0,90,0.00,,SCT040,0.04,0.00,VWS V14.00,2013-02-26 04:58:00,